This demonstration page uses our WeatherBlox Daily Observations layout. Learn more.

Left ArrowRight Arrow

Hourly Observations for June 6, 2017

Temp ( °F °C ) Dew Point ( °F °C ) Humidity (%) Winds ( mph kmh ) Pressure ( in mb ) Visibility ( mi km ) Precip ( " mm )
12:56 am 00:56 Clear 69 20.6 52 11 54 54 ESE 3 6 29.93 1014 10 16 0.00 0.03
1:56 am 01:56 Clear 68 20.2 53 11.7 58 58 E 3 6 29.95 1014 10 16 0.00 0.00
2:56 am 02:56 Clear 67 19.3 54 12.1 63 63 ESE 3 6 29.96 1014 10 16 0.00 0.00
3:56 am 03:56 Clear 62 16.8 53 11.9 73 73 ESE 3 6 29.98 1015 10 16 0.00 0.00
4:56 am 04:56 Clear 65 18.3 55 12.7 70 70 E 5 7 29.98 1015 10 16 0.00 0.00
5:56 am 05:56 Sunny 63 17.3 54 12.2 72 72 ESE 6 9 30.01 1016 10 16 0.00 0.00
6:56 am 06:56 Sunny 65 18.3 54 12.1 67 67 E 8 13 30.02 1017 10 16 0.00 0.00
7:56 am 07:56 Sunny 68 20.1 51 10.8 55 55 ESE 9 15 30.03 1017 10 16 0.00 0.00
8:56 am 08:56 Sunny 71 21.8 51 10.3 48 48 ESE 10 17 30.04 1017 10 16 0.00 0.00
9:56 am 09:56 Sunny 75 23.8 50 10.1 42 42 ESE 12 19 30.05 1018 10 16 0.00 0.00
10:56 am 10:56 Sunny 75 23.8 51 10.5 43 43 E 7 11 30.05 1018 10 16 0.00 0.00
11:56 am 11:56 Sunny 78 25.3 50 9.9 38 38 ESE 9 15 30.05 1018 10 16 0.00 0.00
12:56 pm 12:56 Sunny 80 26.6 51 10.7 37 37 ESE 12 19 30.05 1018 10 16 0.00 0.00
1:56 pm 13:56 Sunny 80 26.7 50 10 35 35 SE 6 9 30.03 1017 10 16 0.00 0.00
2:56 pm 14:56 Sunny 83 28.4 49 9.6 31 31 SE 9 15 30.01 1016 10 16 0.00 0.00
3:56 pm 15:56 Sunny 83 28.3 49 9.5 31 31 NE 7 11 30.00 1016 10 16 0.00 0.00
4:56 pm 16:56 Sunny 84 29 49 9.6 30 30 NE 5 7 29.99 1016 10 16 0.00 0.00
5:56 pm 17:56 Sunny 83 28.2 49 9.4 31 31 E 7 11 29.99 1016 10 16 0.00 0.00
6:56 pm 18:56 Sunny 81 27.1 49 9.4 33 33 ESE 10 17 29.98 1015 10 16 0.00 0.00
7:56 pm 19:56 Sunny 77 25.2 51 10.6 40 40 ESE 8 13 29.99 1016 10 16 0.00 0.00
8:56 pm 20:56 Clear 71 21.9 49 9.7 46 46 E 5 7 30.00 1016 10 16 0.00 0.00
9:56 pm 21:56 Clear 70 21.2 51 10.4 50 50 E 6 9 30.02 1017 10 16 0.00 0.03
10:56 pm 22:56 Clear 68 19.9 50 10 53 53 E 5 7 30.04 1017 10 16 0.00 0.03
11:56 pm 23:56 Clear 68 20.2 50 10 52 52 SE 3 6 30.03 1017 10 16 0.00 0.00

Powered by AerisWeather